COSMOS 732

Satellite information

Favourite Embed

Satellite Type and Status

PAYLOADIN ORBIT

Key statistics

Satellite COSMOS 732 at a glance.

Uptime

18247

Days in orbit

Revolutions

≈ 12.6

Per day

Orbit

LEO

Low Earth Orbit

Inclination

74.0

Latest

Satellite identification and parameters

Extended collection of information and parameters for COSMOS 732.

Object identification

Identified? True

Debris? False

Object name: COSMOS 732

International designator: 1975-045A

Object number (NORAD): 7820

Object ID (CCSDS): 7820

Country: COMMONWEALTH OF INDEPENDENT STATES (CIS)

Current information (Y/N): Y

RCS size: MEDIUM

Orbital parameters

Period: 114.584 minutes

Inclination: 74.0165 deg

SMA: 7814.665 km

Apoapsis: 1469.324 km

Periapsis: 1403.736 km

RAAN: 176.4811 deg

Eccentricy: 0.0041965

Argument of periapsis: 76.9851 deg

Mean anomaly: 38.0354 deg

Mean motion: 12.567162 rev/day

Mean motion (dot): 0.00000005 rev/day2

B* drag term: 0.00012692 1/REarth

Two-line elements (TLE)

Creation date: May 11, 2025, 2:40 a.m.

Reference frame: TEME

Reference center: EARTH

Epoch: May 10, 2025, 1:55 p.m. UTC

TLE line 0: 0 COSMOS 732

TLE line 1: 1 07820U 75045A 25130.57999780 .00000005 00000-0 12692-3 0 9991

TLE line 2: 2 07820 74.0165 176.4811 0041965 76.9851 38.0354 12.56716200291691

Live tracking on map

Real-time ground track for satellite COSMOS 732.

In-orbit conjunctions

There are no conjunctions computed for COSMOS 732, at the moment. Check back to stay up to date, as we update our databases every day.

Go to all conjunctions

Associated space launch

Military communications satellites

COSMOS 732 was lifted into orbit during the mission ‘Kosmos-3M | Strela-1M 89-96’, on board a Kosmos-3M space rocket.

The launch took place on May 28, 1975, 12:25 a.m. from 132/1 (132L).

For more information about the launch, click the button.

Launch to space Kosmos-3M | Strela-1M 89-96
Kosmos-3M | Strela-1M 89-96

Agency: N/A

Status: Launch Successful

Launch date: May 28, 1975, 12:25 a.m. UTC

Rocket: Kosmos-3M

Launch pad: 132/1 (132L)

Location: Plesetsk Cosmodrome, Russian Federation

...

Latest news about this satellite

There are no fresh news available about this satellite. Check back as we update our databases every day.


Newsletter sign-up

Weekly statistics, charts and insights to help you stay on top of the space industry.